Location: ????
(32.1228°N, 34.8377°E)
Time: 16:44:45
(UTC+00:00)

ADEOS - Pass Details

Date: 21 September 2020
Orbit: 792 x 794 km, 98.9° (Epoch: 24 October)

Event Time Altitude Azimuth Distance (km) Brightness Sun altitude
Rises 02:26:18 0° 6° (N) 3,295 7.0 -13.9°
Reaches altitude 10° 02:28:41 10° 2° (N) 2,362 6.2 -13.4°
Maximum altitude 02:33:43 52° 287° (WNW) 979 3.7 -12.4°
Drops below altitude 10° 02:38:45 10° 212° (SSW) 2,350 5.7 -11.3°
Sets 02:41:06 0° 207° (SSW) 3,276 6.4 -10.8°
